This demonstration page uses our WeatherBlox Daily Observations layout. Learn more.

Left ArrowRight Arrow

39.51506, -84.39828

Hourly Observations for May 26, 2020

Temp ( °F °C ) Dew Point ( °F °C ) Humidity (%) Winds ( mph kmh ) Pressure ( in mb ) Visibility ( mi km ) Precip ( " mm )
12:15 am 00:15 Clear 66 18.7 65 18.6 99 99 Calm 30.05 1018 10 16.0934 0 0
12:35 am 00:35 Clear 66 18.9 66 18.8 99 99 Calm 30.05 1018 10 16.0934 0 0
12:55 am 00:55 Clear 65 18.3 65 18.3 100 100 Calm 30.06 1018 10 16.0934 0 0
1:15 am 01:15 Clear 65 18.3 65 18.3 100 100 Calm 30.05 1018 10 16.0934 0 0
1:35 am 01:35 Clear 65 18.2 65 18.1 99 99 Calm 30.05 1018 10 16.0934 0 0
1:55 am 01:55 Clear 65 18.2 65 18.2 100 100 Calm 30.05 1018 10 16.0934 0 0
2:15 am 02:15 Clear 64 17.6 64 17.6 100 100 Calm 30.04 1017 10 16.0934 0 0
2:35 am 02:35 Clear with Mist and Fog 64 18 64 18 100 100 Calm 30.03 1017 5 8.0467 0 0
2:55 am 02:55 Hazy 64 18 N/A N/A Calm 30.04 1017 7 11.26538 0 0
3:15 am 03:15 Clear 63 17 N/A N/A Calm 30.04 1017 7 11.26538 0 0
3:35 am 03:35 Hazy 64 18 N/A N/A Calm 30.03 1017 7 11.26538 0 0
3:55 am 03:55 Hazy 64 18 N/A N/A Calm 30.04 1017 7 11.26538 0 0
4:15 am 04:15 Mostly Cloudy with Mist and Fog 63 17 N/A N/A Calm 30.04 1017 1.25 2.011675 0 0
4:35 am 04:35 Clear with Mist and Fog 63 17 N/A N/A Calm 30.04 1017 2 3.21868 0 0
4:55 am 04:55 Clear 63 17 N/A N/A Calm 30.05 1018 7 11.26538 0 0
5:15 am 05:15 Clear 63 17 N/A N/A Calm 30.05 1018 7 11.26538 0 0
5:35 am 05:35 Hazy 63 17 N/A N/A Calm 30.05 1018 5 8.0467 0 0
5:55 am 05:55 Hazy 63 17 N/A N/A Calm 30.06 1018 7 11.26538 0 0
6:15 am 06:15 Sunny 63 17 N/A N/A Calm 30.06 1018 10 16.0934 0 0
6:35 am 06:35 Sunny 61 16 N/A N/A Calm 30.07 1018 7 11.26538 0 0
6:55 am 06:55 Sunny 61 16 N/A N/A Calm 30.08 1019 7 11.26538 0 0
7:15 am 07:15 Sunny 63 17 N/A N/A Calm 30.08 1019 7 11.26538 0 0
7:35 am 07:35 Sunny 64 18 N/A N/A Calm 30.08 1019 10 16.0934 0 0
7:55 am 07:55 Sunny 66 19 N/A N/A Calm 30.09 1019 10 16.0934 0 0
8:15 am 08:15 Sunny 67 19.3 67 19.2 99 99 Calm 30.09 1019 10 16.0934 0 0
8:35 am 08:35 Sunny 68 19.8 67 19.6 99 99 Calm 30.09 1019 10 16.0934 0 0
8:55 am 08:55 Sunny 69 20.7 68 20 96 96 Calm 30.08 1019 10 16.0934 0 0
9:15 am 09:15 Sunny 71 21.4 68 20.2 93 93 Calm 30.09 1019 10 16.0934 0 0
9:35 am 09:35 Sunny 72 22.2 69 20.4 90 90 Calm 30.09 1019 10 16.0934 0 0
9:55 am 09:55 Sunny 74 23.4 69 20.8 85 85 Calm 30.09 1019 10 16.0934 0 0
10:15 am 10:15 Sunny 73 23 69 20.6 86 86 Calm 30.08 1019 10 16.0934 0 0
10:35 am 10:35 Sunny 75 23.7 70 21 85 85 Calm 30.08 1018 10 16.0934 0 0
10:55 am 10:55 Sunny 76 24.5 70 21.3 82 82 Calm 30.08 1019 10 16.0934 0 0
11:15 am 11:15 Sunny 78 25.3 69 20.5 75 75 WSW 3 6 30.07 1018 10 16.0934 0 0
11:35 am 11:35 Sunny 78 25.8 69 20.6 73 73 W 5 7 30.07 1018 10 16.0934 0 0
11:55 am 11:55 Sunny 80 26.5 68 20.1 68 68 W 3 6 30.07 1018 10 16.0934 0 0
12:15 pm 12:15 Sunny 81 27.4 69 20.3 65 65 SW 5 7 30.06 1018 10 16.0934 0 0
12:35 pm 12:35 Sunny 82 28 68 20.1 62 62 Calm 30.06 1018 10 16.0934 0 0
12:55 pm 12:55 Sunny 83 28.1 67 19.4 59 59 Calm 30.05 1017 10 16.0934 0 0
1:15 pm 13:15 Sunny 84 28.7 69 20.5 61 61 SSW 3 6 30.04 1017 10 16.0934 0 0
1:35 pm 13:35 Mostly Cloudy 83 28.3 67 19.7 60 60 Calm 30.04 1017 10 16.0934 0 0
1:55 pm 13:55 Sunny 84 28.7 66 19 56 56 E 3 6 30.02 1017 10 16.0934 0 0
2:15 pm 14:15 Partly Cloudy 85 29.3 68 20.1 58 58 S 9 15 30.01 1016 10 16.0934 0 0
2:35 pm 14:35 Mostly Cloudy 85 29.7 69 20.5 58 58 S 5 7 30.01 1016 10 16.0934 0 0
2:55 pm 14:55 Partly Cloudy 84 29 69 20.3 59 59 SSE 7 11 30 1016 10 16.0934 0 0
3:15 pm 15:15 Partly Cloudy 86 30.1 69 20.6 57 57 SW 3 6 29.99 1016 10 16.0934 0 0
3:35 pm 15:35 Partly Cloudy 87 30.6 69 20.6 55 55 S 8 13 29.98 1015 10 16.0934 0 0
3:55 pm 15:55 Partly Cloudy 87 30.6 68 20 53 53 ESE 6 9 29.97 1015 10 16.0934 0 0
4:15 pm 16:15 Sunny 84 29 66 19 55 55 SSE 7 11 29.97 1015 10 16.0934 0 0
4:35 pm 16:35 Partly Cloudy 87 30.8 66 18.7 48 48 S 9 15 29.96 1015 10 16.0934 0 0
4:55 pm 16:55 Mostly Cloudy 87 30.8 67 19.4 51 51 SSW 3 6 29.96 1015 10 16.0934 0 0
5:15 pm 17:15 Mostly Cloudy 86 30 66 19 52 52 S 6 9 29.95 1014 10 16.0934 0 0
5:35 pm 17:35 Partly Cloudy 86 29.9 67 19.4 53 53 SE 6 9 29.95 1014 10 16.0934 0 0
5:55 pm 17:55 Sunny 87 30.5 66 18.9 50 50 S 10 17 29.94 1014 10 16.0934 0 0
6:15 pm 18:15 Sunny 86 30.1 66 18.8 51 51 S 10 17 29.95 1014 10 16.0934 0 0
6:35 pm 18:35 Sunny 86 30.1 66 19.1 52 52 S 8 13 29.94 1014 10 16.0934 0 0
6:55 pm 18:55 Sunny 86 29.8 66 18.9 52 52 SSW 8 13 29.94 1014 10 16.0934 0 0
7:15 pm 19:15 Sunny 84 29 66 18.7 54 54 SSW 9 15 29.94 1014 10 16.0934 0 0
7:35 pm 19:35 Sunny 83 28.3 65 18.2 54 54 S 5 7 29.95 1014 10 16.0934 0 0
7:55 pm 19:55 Sunny 83 28.6 66 18.7 55 55 SSE 3 6 29.96 1014 10 16.0934 0 0
8:15 pm 20:15 Sunny 83 28.3 66 18.8 56 56 SSE 3 6 29.96 1014 10 16.0934 0 0
8:35 pm 20:35 Partly Cloudy 83 28.3 66 18.7 56 56 Calm 29.96 1014 10 16.0934 0 0
8:55 pm 20:55 Cloudy 83 28.2 65 18.4 55 55 SSE 6 9 29.97 1015 10 16.0934 0 0
9:15 pm 21:15 Cloudy 82 27.6 65 18.3 57 57 SSE 8 13 29.97 1015 7 11.26538 0 0
9:35 pm 21:35 Clear 80 26.9 65 18.2 59 59 S 6 9 29.98 1015 10 16.0934 0 0
9:55 pm 21:55 Clear 80 26.5 65 18.2 60 60 SSE 7 11 29.98 1015 10 16.0934 0 0
10:15 pm 22:15 Clear 79 25.9 65 18.2 63 63 SSE 6 9 29.98 1015 10 16.0934 0 0
10:35 pm 22:35 Clear 77 25.2 65 18.3 66 66 Calm 29.98 1015 10 16.0934 0 0
10:55 pm 22:55 Clear 72 22.1 67 19.2 84 84 Calm 30 1016 10 16.0934 0 0
11:15 pm 23:15 Clear 70 21.2 66 19.1 88 88 NNE 3 6 30 1016 10 16.0934 0 0
11:35 pm 23:35 Clear 69 20.5 66 19.1 92 92 Calm 30 1016 10 16.0934 0 0
11:55 pm 23:55 Clear 69 20.3 66 19.1 93 93 Calm 30 1016 7 11.26538 0 0

Powered by AerisWeather